User: anonymous   Login
Location: Unspecified
(47.8330°N, 0.0000°E)
Time: 20:23:34
(UTC+00:00)
Language:

UNISAT 6 - Orbit

View from above orbital plane
View from above orbital plane
View from above satellite
View from above satellite

Ground track
Ground track

The orbit data is extracted from the following two-line orbital elements,

1 40012U 14033C   19197.50843147  .00000116  00000-0  24746-4 0  9992
2 40012  97.7543  62.9169 0058685   9.6342 350.5977 14.73985541272782
Epoch (UTC): 16 July 2019 12:12:08
Eccentricity: 0.0058685
inclination: 97.7543°
perigee height: 607 km
apogee height: 689 km
right ascension of ascending node: 62.9169°
argument of perigee: 9.6342°
revolutions per day: 14.73985541
mean anomaly at epoch: 350.5977°
orbit number at epoch: 27278

The dashed part of the orbit path shows where the satellite is in the earth's shadow,  

DLR